EI4HQ Weather Reports


Display with metric or nautical units.
time (UTC)temp
F
wind
direction
speed
MPH
gust
MPH
rain 1hr
in
rain 24hr
in
rain mn
in
humidity
%
barometer
mb
20260509222703 49 3 6.0 10.0 0.00 0.00 0.00 65 1022.7
20260509221803 49 4 6.0 11.0 0.00 0.00 0.00 65 1022.5
20260509220903 50 4 6.0 11.0 0.00 0.00 0.00 65 1022.6
20260509220003 50 2 7.0 13.0 0.00 0.00 0.00 64 1022.5
20260509215403 50 4 7.0 13.0 0.00 0.00 0.00 64 1022.5
20260509214503 50 5 6.0 14.0 0.00 0.00 0.00 64 1022.4
20260509213603 50 4 6.0 10.0 0.00 0.00 0.00 65 1022.5
20260509212703 51 3 6.0 12.0 0.00 0.00 0.00 65 1022.4
20260509211803 51 1 5.0 10.0 0.00 0.00 0.00 65 1022.4
20260509210903 51 3 5.0 8.0 0.00 0.00 0.00 65 1022.3
20260509210003 52 3 6.0 11.0 0.00 0.00 0.00 64 1022.2
20260509205403 52 359 6.0 9.0 0.00 0.00 0.00 64 1022.1
20260509204503 52 360 6.0 9.0 0.00 0.00 0.00 63 1021.9
20260509203603 53 2 5.0 11.0 0.00 0.00 0.00 61 1021.8
20260509202703 54 4 6.0 10.0 0.00 0.00 0.00 60 1021.7
20260509201803 54 7 5.0 9.0 0.00 0.00 0.00 60 1021.6
20260509200903 54 11 6.0 12.0 0.00 0.00 0.00 59 1021.6
20260509200003 55 6 5.0 12.0 0.00 0.00 0.00 59 1021.5
20260509195403 55 9 6.0 10.0 0.00 0.00 0.00 58 1021.4
20260509194503 56 11 5.0 9.0 0.00 0.00 0.00 58 1021.4
20260509193603 56 14 5.0 10.0 0.00 0.00 0.00 57 1021.3
20260509192703 56 23 6.0 13.0 0.00 0.00 0.00 57 1021.2
20260509191803 57 31 6.0 16.0 0.00 0.00 0.00 56 1021.1
20260509190903 57 24 5.0 14.0 0.00 0.00 0.00 57 1021.1
20260509190003 57 27 6.0 12.0 0.00 0.00 0.00 56 1021.0
20260509185403 57 26 6.0 13.0 0.00 0.00 0.00 56 1020.9
20260509184514 57 21 6.0 13.0 0.00 0.00 0.00 56 1020.9
20260509183603 57 19 7.0 15.0 0.00 0.00 0.00 55 1020.9
20260509182703 57 15 7.0 16.0 0.00 0.00 0.00 55 1020.8
20260509181803 57 16 7.0 15.0 0.00 0.00 0.00 55 1020.8
20260509180903 57 13 8.0 15.0 0.00 0.00 0.00 55 1020.6
20260509180003 58 8 7.0 15.0 0.00 0.00 0.00 57 1020.6
20260509175403 58 8 8.0 15.0 0.00 0.00 0.00 56 1020.5
20260509174503 58 12 8.0 17.0 0.00 0.00 0.00 55 1020.4
20260509173603 59 21 7.0 15.0 0.00 0.00 0.00 56 1020.5
20260509172703 59 25 6.0 12.0 0.00 0.00 0.00 56 1020.3
20260509171803 59 18 6.0 12.0 0.00 0.00 0.00 56 1020.4
20260509170903 59 21 6.0 16.0 0.00 0.00 0.00 55 1020.4
20260509170003 59 16 9.0 20.0 0.00 0.00 0.00 56 1020.2
20260509165403 59 14 8.0 16.0 0.00 0.00 0.00 55 1020.1
20260509164503 59 16 6.0 14.0 0.00 0.00 0.00 57 1020.2
20260509163603 59 40 7.0 16.0 0.00 0.00 0.00 56 1020.2
20260509162703 59 37 6.0 15.0 0.00 0.00 0.00 56 1020.1
20260509161803 60 22 6.0 13.0 0.00 0.00 0.00 57 1020.2
20260509160903 60 17 7.0 15.0 0.00 0.00 0.00 56 1020.1
20260509160003 60 18 9.0 19.0 0.00 0.00 0.00 55 1020.0
20260509155403 60 16 7.0 17.0 0.00 0.00 0.00 55 1020.1
20260509154503 60 18 8.0 17.0 0.00 0.00 0.00 55 1020.1
20260509153603 60 19 7.0 16.0 0.00 0.00 0.00 55 1020.1
20260509152703 60 38 8.0 17.0 0.00 0.00 0.00 56 1020.2
20260509151803 60 34 6.0 13.0 0.00 0.00 0.00 57 1020.2
20260509150903 60 12 7.0 15.0 0.00 0.00 0.00 57 1020.2
20260509150003 60 28 6.0 15.0 0.00 0.00 0.00 58 1020.1
20260509145403 60 26 7.0 19.0 0.00 0.00 0.00 57 1020.2
20260509144503 60 27 5.0 13.0 0.00 0.00 0.00 59 1020.1
20260509143603 59 27 6.0 13.0 0.00 0.00 0.00 57 1020.2
20260509142703 59 16 5.0 12.0 0.00 0.00 0.00 58 1020.2
20260509141803 59 23 6.0 13.0 0.00 0.00 0.00 59 1020.2
20260509140903 59 20 5.0 11.0 0.00 0.00 0.00 58 1020.4
20260509140003 59 29 8.0 16.0 0.00 0.00 0.00 59 1020.5
20260509135403 59 27 7.0 15.0 0.00 0.00 0.00 59 1020.4
20260509134503 59 27 6.0 13.0 0.00 0.00 0.00 58 1020.4
20260509133603 60 45 7.0 16.0 0.00 0.00 0.00 53 1020.3
20260509132703 59 39 6.0 14.0 0.00 0.00 0.00 54 1020.3
20260509131803 58 33 5.0 15.0 0.00 0.00 0.00 54 1020.5
20260509130903 58 27 6.0 15.0 0.00 0.00 0.00 55 1020.4
20260509130003 58 23 7.0 15.0 0.00 0.00 0.00 57 1020.4
20260509125403 57 12 7.0 14.0 0.00 0.00 0.00 56 1020.4
20260509124503 57 24 6.0 12.0 0.00 0.00 0.00 59 1020.3
20260509123603 57 7 6.0 13.0 0.00 0.00 0.00 58 1020.4
20260509122703 56 13 7.0 12.0 0.00 0.00 0.00 58 1020.4
20260509121803 57 13 7.0 14.0 0.00 0.00 0.00 58 1020.4
20260509120903 56 4 8.0 18.0 0.00 0.00 0.00 60 1020.4
20260509120003 56 14 7.0 15.0 0.00 0.00 0.00 61 1020.4
20260509115403 56 23 7.0 15.0 0.00 0.00 0.00 59 1020.4
20260509114503 56 18 7.0 16.0 0.00 0.00 0.00 57 1020.4
20260509113603 56 13 7.0 15.0 0.00 0.00 0.00 60 1020.4
20260509112703 56 2 7.0 16.0 0.00 0.00 0.00 61 1020.4
20260509111803 56 8 7.0 16.0 0.00 0.00 0.00 61 1020.4
20260509110903 56 14 8.0 15.0 0.00 0.00 0.00 61 1020.4
20260509110003 55 10 8.0 17.0 0.00 0.00 0.00 60 1020.3
20260509105403 55 8 7.0 14.0 0.00 0.00 0.00 62 1020.4
20260509104503 54 2 9.0 18.0 0.00 0.00 0.00 63 1020.4
20260509103603 54 3 9.0 15.0 0.00 0.00 0.00 64 1020.4
20260509102703 54 11 8.0 18.0 0.00 0.00 0.00 64 1020.5
20260509101803 54 14 8.0 17.0 0.00 0.00 0.00 64 1020.5
20260509100903 54 2 9.0 16.0 0.00 0.00 0.00 64 1020.4
20260509100003 53 2 10.0 18.0 0.00 0.00 0.00 66 1020.4
20260509095403 53 7 10.0 19.0 0.00 0.00 0.00 65 1020.4
20260509094503 53 9 10.0 17.0 0.00 0.00 0.00 66 1020.4
20260509093603 53 8 10.0 20.0 0.00 0.00 0.00 66 1020.3
20260509092703 52 358 10.0 17.0 0.00 0.00 0.00 69 1020.3
20260509091803 52 357 9.0 19.0 0.00 0.00 0.00 71 1020.3
20260509090903 51 1 8.0 16.0 0.00 0.00 0.00 72 1020.3
20260509090003 50 1 9.0 17.0 0.00 0.00 0.00 72 1020.2
20260509085403 50 2 9.0 16.0 0.00 0.00 0.00 73 1020.2
20260509084503 49 359 10.0 21.0 0.00 0.00 0.00 73 1020.3
20260509083603 49 1 10.0 19.0 0.00 0.00 0.00 74 1020.2
20260509082703 49 1 10.0 19.0 0.00 0.00 0.00 74 1020.1
20260509081803 49 360 9.0 17.0 0.00 0.00 0.00 74 1020.0
20260509080903 49 359 10.0 17.0 0.00 0.00 0.00 74 1020.0
20260509080003 49 1 8.0 16.0 0.00 0.00 0.00 74 1020.1
20260509075403 49 6 8.0 17.0 0.00 0.00 0.00 74 1020.0
20260509074503 49 360 9.0 17.0 0.00 0.00 0.00 74 1019.9
20260509073603 49 5 9.0 16.0 0.00 0.00 0.00 74 1019.9
20260509072703 49 1 9.0 17.0 0.00 0.00 0.00 74 1019.8
20260509071803 49 360 10.0 18.0 0.00 0.00 0.00 74 1019.8
20260509070903 49 356 11.0 18.0 0.00 0.00 0.00 75 1019.7
20260509070003 48 357 10.0 18.0 0.00 0.00 0.00 75 1019.6
20260509065403 48 358 10.0 18.0 0.00 0.00 0.00 76 1019.6
20260509064518 48 5 8.0 16.0 0.00 0.00 0.00 76 1019.4
20260509063603 48 3 9.0 16.0 0.00 0.00 0.00 76 1019.4
20260509062703 48 4 9.0 17.0 0.00 0.00 0.00 77 1019.5
20260509061803 48 360 10.0 16.0 0.00 0.00 0.00 77 1019.4
20260509060903 48 357 9.0 16.0 0.00 0.00 0.00 77 1019.4
20260509060003 48 352 8.0 14.0 0.00 0.00 0.00 78 1019.5
20260509055403 48 349 9.0 16.0 0.00 0.00 0.00 77 1019.4
20260509054503 48 354 8.0 14.0 0.00 0.00 0.00 77 1019.5
20260509053603 47 353 8.0 14.0 0.00 0.00 0.00 77 1019.5
20260509052703 47 356 8.0 15.0 0.00 0.00 0.00 77 1019.3
20260509051803 47 360 8.0 15.0 0.00 0.00 0.00 77 1019.1
20260509050903 47 358 8.0 13.0 0.00 0.00 0.00 77 1019.0
20260509050003 47 357 8.0 13.0 0.00 0.00 0.00 78 1019.0
20260509045403 47 357 8.0 13.0 0.00 0.00 0.00 78 1018.9
20260509044503 47 357 8.0 15.0 0.00 0.00 0.00 78 1018.9
20260509043603 47 358 8.0 13.0 0.00 0.00 0.00 79 1018.9
20260509042703 47 356 8.0 14.0 0.00 0.00 0.00 79 1019.0
20260509041803 48 356 8.0 13.0 0.00 0.00 0.00 79 1018.9
20260509040903 48 359 7.0 11.0 0.00 0.00 0.00 80 1018.9
20260509040003 48 356 7.0 12.0 0.00 0.00 0.00 80 1018.8
20260509035403 48 355 8.0 13.0 0.00 0.00 0.00 80 1018.8
20260509034503 48 356 8.0 14.0 0.00 0.00 0.00 81 1018.8
20260509033603 48 358 8.0 15.0 0.00 0.00 0.00 81 1018.7
20260509032703 48 358 8.0 13.0 0.00 0.00 0.00 81 1018.8
20260509031803 48 357 8.0 16.0 0.00 0.00 0.00 81 1018.8
20260509030903 48 355 9.0 16.0 0.00 0.00 0.00 81 1018.8
20260509030003 48 357 8.0 16.0 0.00 0.00 0.00 81 1018.8
20260509025403 48 357 8.0 12.0 0.00 0.00 0.00 81 1018.8
20260509024503 48 360 7.0 13.0 0.00 0.00 0.00 81 1018.8
20260509023603 48 357 7.0 11.0 0.00 0.00 0.00 81 1018.9
20260509022703 49 358 5.0 10.0 0.00 0.00 0.00 81 1019.0
20260509021803 49 358 4.0 9.0 0.00 0.00 0.00 81 1019.2
20260509020903 49 3 5.0 9.0 0.00 0.00 0.00 81 1019.0
20260509020003 49 3 5.0 9.0 0.00 0.00 0.00 81 1019.0
20260509015403 49 1 4.0 9.0 0.00 0.00 0.00 81 1019.0
20260509014503 49 357 4.0 9.0 0.00 0.00 0.00 81 1019.0
20260509013603 50 359 4.0 7.0 0.00 0.00 0.00 80 1019.1
20260509012703 50 10 4.0 9.0 0.00 0.00 0.00 80 1019.0
20260509011803 50 11 4.0 9.0 0.00 0.00 0.00 80 1019.1
20260509010903 50 8 3.0 7.0 0.00 0.00 0.00 79 1019.1
20260509010003 50 13 4.0 8.0 0.00 0.00 0.00 79 1019.0
20260509005403 50 10 4.0 8.0 0.00 0.00 0.00 79 1018.9
20260509004503 50 13 4.0 8.0 0.00 0.00 0.00 78 1018.8
20260509003603 50 16 3.0 8.0 0.00 0.00 0.00 79 1018.7
20260509002704 50 19 3.0 6.0 0.00 0.00 0.00 79 1018.8
20260509001803 50 15 3.0 6.0 0.00 0.00 0.00 79 1018.7
20260509000903 50 4 3.0 5.0 0.00 0.00 0.00 79 1018.7
20260509000003 51 21 3.0 6.0 0.00 0.00 0.00 80 1018.8
20260508235403 51 25 4.0 9.0 0.00 0.00 0.00 80 1018.8
20260508234503 51 30 4.0 8.0 0.00 0.00 0.00 80 1018.7
20260508233603 51 20 3.0 7.0 0.00 0.00 0.00 81 1018.7
20260508232703 52 16 4.0 7.0 0.00 0.00 0.00 81 1018.6
20260508231803 52 23 4.0 9.0 0.00 0.00 0.00 81 1018.7
20260508230903 52 19 3.0 8.0 0.00 0.00 0.00 81 1018.6
20260508230003 52 22 3.0 6.0 0.00 0.00 0.00 81 1018.6
20260508225403 52 24 3.0 8.0 0.00 0.00 0.00 81 1018.6
20260508224503 52 42 3.0 5.0 0.00 0.00 0.00 81 1018.6
20260508223603 52 40 3.0 7.0 0.00 0.00 0.00 81 1018.5